Location: Klein M�hlingen
(51.9472°N, 11.7453°E)
Time: 12:47:57
(UTC+00:00)

USA 234 - Pass Details

Date: 09 April 2020
Orbit: 1102 x 1106 km, 123.0° (Epoch: 14 May)

Event Time Altitude Azimuth Distance (km) Brightness Sun altitude
Rises 19:49:51 0° 59° (ENE) 3,927 5.9 -15.9°
Reaches altitude 10° 19:52:41 10° 70° (ENE) 2,966 5.2 -16.2°
Maximum altitude 19:58:25 32° 131° (SE) 1,801 3.8 -16.9°
Drops below altitude 10° 20:04:08 10° 193° (SSW) 2,955 5.3 -17.6°
Sets 20:06:56 0° 203° (SSW) 3,911 6.0 -17.9°
